BAW28L KLAX-EGLL

Flight info

Callsign BAW28L
Flight time N/A
Altitude 33000
Route ORCKA5 LAS DCT BAWER DCT LARVE DCT EKR DCT RAP DCT DPR DCT KP09A DCT HML DCT RIONA/N0484F350 DCT ELVEL DCT VIRSO DCT 5630N07000W DCT LAKES/M084F350 DCT TOXIT DCT 60N050W 6030N04000W 60N030W 59N020W DCT AGORI/N0479F350 DCT OSBOX DCT MIMKU DCT KELLY L10 WAL UY53 NUGRA
Aircraft B77W/H-SDE1E2E3FGHIJ2J3J4J5M1RWXY/LB1D1

Departure

Time 2026-05-03 23:46
Airport Los Angeles International Airport (KLAX)

Arrival

Time N/A
Airport London Heathrow Airport (EGLL)
Time Latitude Longitude Altitude Speed Heading
2026-05-03 22:55 33.94099 -118.41087 98 ft 0 kts 83°
2026-05-03 23:34 33.94098 -118.41101 99 ft 4 kts 83°
2026-05-03 23:34 33.94094 -118.41133 97 ft 4 kts 82°
2026-05-03 23:34 33.94091 -118.41165 96 ft 4 kts 85°
2026-05-03 23:35 33.94085 -118.41191 95 ft 4 kts 31°
2026-05-03 23:35 33.94061 -118.41196 96 ft 4 kts 356°
2026-05-03 23:35 33.94052 -118.41195 96 ft 0 kts
2026-05-03 23:39 33.94066 -118.41195 99 ft 7 kts
2026-05-03 23:40 33.94132 -118.41200 98 ft 10 kts 354°
2026-05-03 23:40 33.94199 -118.41210 98 ft 10 kts 353°
2026-05-03 23:40 33.94272 -118.41222 100 ft 13 kts 352°
2026-05-03 23:40 33.94376 -118.41237 99 ft 18 kts 353°
2026-05-03 23:41 33.94504 -118.41256 98 ft 15 kts 353°
2026-05-03 23:41 33.94606 -118.41271 98 ft 15 kts 353°
2026-05-03 23:41 33.94709 -118.41287 98 ft 15 kts 353°
2026-05-03 23:41 33.94792 -118.41242 103 ft 15 kts 74°
2026-05-03 23:42 33.94809 -118.41116 99 ft 16 kts 83°
2026-05-03 23:42 33.94823 -118.40983 100 ft 16 kts 83°
2026-05-03 23:42 33.94837 -118.40846 99 ft 18 kts 83°
2026-05-03 23:42 33.94854 -118.40685 99 ft 21 kts 83°
2026-05-03 23:43 33.94873 -118.40498 100 ft 24 kts 83°
2026-05-03 23:43 33.94892 -118.40315 100 ft 20 kts 82°
2026-05-03 23:43 33.94909 -118.40151 98 ft 17 kts 83°
2026-05-03 23:43 33.94920 -118.40041 99 ft 13 kts 83°
2026-05-03 23:44 33.94944 -118.39938 99 ft 13 kts 51°
2026-05-03 23:44 33.95006 -118.39917 100 ft 8 kts 358°
2026-05-03 23:44 33.95036 -118.39926 100 ft 4 kts 329°
2026-05-03 23:44 33.95042 -118.39958 101 ft 4 kts 262°
2026-05-03 23:45 33.95042 -118.39960 101 ft 0 kts 262°
2026-05-03 23:45 33.95040 -118.39976 101 ft 9 kts 262°
2026-05-03 23:46 33.95015 -118.40215 105 ft 62 kts 263°
2026-05-03 23:46 33.94929 -118.41048 102 ft 137 kts 263°
2026-05-03 23:46 33.94782 -118.42435 177 ft 187 kts 263°
2026-05-03 23:46 33.94619 -118.43992 831 ft 187 kts 262°
2026-05-03 23:47 33.94462 -118.45543 1651 ft 189 kts 262°
2026-05-03 23:47 33.94296 -118.47155 2089 ft 200 kts 262°
2026-05-03 23:47 33.94108 -118.48917 2311 ft 223 kts 261°
2026-05-03 23:47 33.93919 -118.50838 2711 ft 238 kts 262°
2026-05-03 23:48 33.93725 -118.52876 3186 ft 251 kts 263°
2026-05-03 23:48 33.93525 -118.54979 3927 ft 253 kts 262°
2026-05-03 23:48 33.93324 -118.57112 4539 ft 261 kts 262°
2026-05-03 23:48 33.93086 -118.59276 5240 ft 258 kts 255°
2026-05-03 23:49 33.92218 -118.61129 5889 ft 260 kts 221°
2026-05-03 23:49 33.90592 -118.62033 6533 ft 265 kts 188°
2026-05-03 23:49 33.88746 -118.61844 7154 ft 272 kts 165°
2026-05-03 23:49 33.87037 -118.60810 7770 ft 280 kts 144°
2026-05-03 23:50 33.85746 -118.59041 8420 ft 287 kts 120°
2026-05-03 23:50 33.85307 -118.57528 8826 ft 294 kts 99°
2026-05-03 23:50 33.85854 -118.54297 9605 ft 305 kts 59°
2026-05-03 23:50 33.87154 -118.52242 10148 ft 312 kts 49°
2026-05-03 23:51 33.88625 -118.50244 10431 ft 330 kts 50°
2026-05-03 23:51 33.90158 -118.48071 10585 ft 351 kts 51°
2026-05-03 23:51 33.91747 -118.45708 10757 ft 373 kts 52°
2026-05-03 23:51 33.93376 -118.43177 11013 ft 391 kts 55°
2026-05-03 23:52 33.94935 -118.40445 11525 ft 401 kts 57°
2026-05-03 23:52 33.96506 -118.37644 12198 ft 407 kts 57°
2026-05-03 23:52 33.98101 -118.34809 12956 ft 411 kts 57°
2026-05-03 23:52 33.99723 -118.31940 13724 ft 416 kts 57°
2026-05-03 23:53 34.01364 -118.29043 14369 ft 422 kts 56°
2026-05-03 23:53 34.03040 -118.26089 14949 ft 430 kts 56°
2026-05-03 23:53 34.04742 -118.23089 15576 ft 436 kts 56°
2026-05-03 23:53 34.06448 -118.20078 16452 ft 433 kts 56°
2026-05-03 23:54 34.08168 -118.17040 16873 ft 446 kts 55°
2026-05-03 23:54 34.09937 -118.13911 17328 ft 456 kts 55°
2026-05-03 23:54 34.11736 -118.10727 17875 ft 462 kts 55°
2026-05-03 23:54 34.13556 -118.07502 18479 ft 468 kts 55°
2026-05-03 23:55 34.15396 -118.04239 18916 ft 474 kts 54°
2026-05-03 23:55 34.17268 -118.00917 19399 ft 481 kts 54°
2026-05-03 23:55 34.19158 -117.97559 19894 ft 487 kts 54°
2026-05-03 23:55 34.21077 -117.94154 20322 ft 494 kts 54°
2026-05-03 23:56 34.23022 -117.90699 20798 ft 500 kts 54°
2026-05-03 23:56 34.24988 -117.87184 21248 ft 506 kts 54°
2026-05-03 23:56 34.26963 -117.83644 21779 ft 510 kts 54°
2026-05-03 23:56 34.28956 -117.80081 22244 ft 516 kts 54°
2026-05-03 23:57 34.30977 -117.76472 22698 ft 521 kts 54°
2026-05-03 23:57 34.33019 -117.72827 23145 ft 526 kts 54°
2026-05-03 23:57 34.35081 -117.69130 23508 ft 533 kts 54°
2026-05-03 23:57 34.37202 -117.65424 23821 ft 538 kts 52°
2026-05-03 23:58 34.39394 -117.61747 24299 ft 539 kts 51°
2026-05-03 23:58 34.41609 -117.58089 24773 ft 540 kts 51°
2026-05-03 23:58 34.43840 -117.54412 25141 ft 544 kts 51°
2026-05-03 23:58 34.46087 -117.50689 25459 ft 550 kts 51°
2026-05-03 23:59 34.48346 -117.46923 25801 ft 554 kts 51°
2026-05-03 23:59 34.50604 -117.43134 26347 ft 553 kts 51°
2026-05-03 23:59 34.52847 -117.39354 26818 ft 554 kts 51°
2026-05-03 23:59 34.55107 -117.35539 27166 ft 558 kts 51°
2026-05-04 00:00 34.57375 -117.31708 27481 ft 562 kts 51°
2026-05-04 00:00 34.58890 -117.29146 27709 ft 564 kts 51°
2026-05-04 00:00 34.61961 -117.23951 28147 ft 568 kts 51°
2026-05-04 00:00 34.63486 -117.21369 28378 ft 570 kts 51°
2026-05-04 00:01 34.65799 -117.17449 28635 ft 572 kts 51°
2026-05-04 00:01 34.68125 -117.13506 28956 ft 575 kts 51°
2026-05-04 00:01 34.70456 -117.09547 29225 ft 578 kts 51°
2026-05-04 00:01 34.72796 -117.05570 29554 ft 579 kts 51°
2026-05-04 00:02 34.75131 -117.01592 29973 ft 577 kts 51°
2026-05-04 00:02 34.77458 -116.97623 30385 ft 576 kts 51°
2026-05-04 00:02 34.79779 -116.93663 30752 ft 575 kts 50°
2026-05-04 00:02 34.82099 -116.89701 31055 ft 575 kts 50°
2026-05-04 00:03 34.84420 -116.85731 31429 ft 574 kts 51°
2026-05-04 00:03 34.86723 -116.81788 31906 ft 570 kts 51°
2026-05-04 00:03 34.89015 -116.77863 32280 ft 568 kts 51°
2026-05-04 00:03 34.91318 -116.73947 32538 ft 569 kts 49°
2026-05-04 00:04 34.93790 -116.70195 32703 ft 568 kts 43°
2026-05-04 00:04 34.96462 -116.66647 32794 ft 569 kts 41°
2026-05-04 00:04 35.01893 -116.59639 32766 ft 565 kts 41°
2026-05-04 00:05 35.07249 -116.52679 32770 ft 561 kts 42°
2026-05-04 00:05 35.12538 -116.45702 32741 ft 557 kts 42°
2026-05-04 00:06 35.17769 -116.38744 32898 ft 552 kts 42°
2026-05-04 00:06 35.23028 -116.31758 32829 ft 563 kts 42°
2026-05-04 00:07 35.28339 -116.24704 32760 ft 563 kts 42°
2026-05-04 00:07 35.33623 -116.17663 32736 ft 560 kts 42°
2026-05-04 00:08 35.38874 -116.10645 32743 ft 558 kts 42°
2026-05-04 00:08 35.44106 -116.03638 32742 ft 557 kts 42°
2026-05-04 00:09 35.49336 -115.96623 32774 ft 557 kts 43°
2026-05-04 00:09 35.54564 -115.89593 32758 ft 558 kts 42°
2026-05-04 00:10 35.59804 -115.82535 32797 ft 559 kts 42°
2026-05-04 00:10 35.65043 -115.75452 32794 ft 561 kts 43°
2026-05-04 00:11 35.70257 -115.68302 32786 ft 562 kts 43°
2026-05-04 00:11 35.75460 -115.61122 32787 ft 562 kts 43°
2026-05-04 00:12 35.80661 -115.53943 32797 ft 562 kts 43°
2026-05-04 00:12 35.85836 -115.46795 32802 ft 563 kts 43°
2026-05-04 00:13 35.91045 -115.39587 32813 ft 563 kts 43°
2026-05-04 00:13 35.96256 -115.32358 32776 ft 564 kts 43°
2026-05-04 00:14 36.01461 -115.25117 32785 ft 563 kts 43°
2026-05-04 00:14 36.06660 -115.17872 32767 ft 563 kts 43°
2026-05-04 00:15 36.11444 -115.10163 32780 ft 567 kts 51°
2026-05-04 00:15 36.15897 -115.02103 32702 ft 568 kts 52°
2026-05-04 00:16 36.20347 -114.94020 32697 ft 569 kts 51°
2026-05-04 00:16 36.24836 -114.85951 32703 ft 570 kts 51°
2026-05-04 00:17 36.29351 -114.77866 32690 ft 571 kts 51°
2026-05-04 00:17 36.33874 -114.69745 32659 ft 573 kts 51°
2026-05-04 00:18 36.38390 -114.61600 32633 ft 572 kts 51°
2026-05-04 00:18 36.42891 -114.53463 32649 ft 572 kts 51°
2026-05-04 00:19 36.47384 -114.45327 32662 ft 571 kts 51°
2026-05-04 00:19 36.51869 -114.37185 32656 ft 571 kts 51°
2026-05-04 00:20 36.56351 -114.29032 32683 ft 571 kts 51°
2026-05-04 00:20 36.60832 -114.20858 32671 ft 572 kts 51°
2026-05-04 00:21 36.65311 -114.12666 32696 ft 573 kts 51°
2026-05-04 00:21 36.69792 -114.04454 32684 ft 572 kts 51°
2026-05-04 00:22 36.74253 -113.96251 32713 ft 571 kts 51°
2026-05-04 00:22 36.78710 -113.88045 32719 ft 572 kts 52°
2026-05-04 00:23 36.83162 -113.79821 32744 ft 571 kts 52°
2026-05-04 00:23 36.87601 -113.71607 32781 ft 570 kts 52°
2026-05-04 00:24 36.92023 -113.63405 32870 ft 568 kts 52°
2026-05-04 00:24 36.96422 -113.55221 32863 ft 566 kts 52°
2026-05-04 00:25 37.00805 -113.47046 32857 ft 565 kts 52°
2026-05-04 00:25 37.05165 -113.38900 32817 ft 563 kts 53°
2026-05-04 00:26 37.09515 -113.30749 32865 ft 562 kts 53°
2026-05-04 00:26 37.13853 -113.22600 32914 ft 562 kts 53°
2026-05-04 00:27 37.18179 -113.14459 32925 ft 562 kts 53°
2026-05-04 00:27 37.22516 -113.06274 32915 ft 564 kts 53°
2026-05-04 00:28 37.26854 -112.98064 32847 ft 565 kts 53°
2026-05-04 00:28 37.31178 -112.89874 32884 ft 559 kts 54°
2026-05-04 00:29 37.35419 -112.81804 32923 ft 558 kts 54°
2026-05-04 00:29 37.39706 -112.73629 32929 ft 559 kts 54°
2026-05-04 00:30 37.43960 -112.65487 32932 ft 556 kts 54°
2026-05-04 00:30 37.48206 -112.57365 32925 ft 555 kts 54°
2026-05-04 00:31 37.52431 -112.49258 32941 ft 553 kts 55°
2026-05-04 00:31 37.56645 -112.41150 32985 ft 551 kts 55°
2026-05-04 00:32 37.60834 -112.33060 33035 ft 551 kts 55°
2026-05-04 00:32 37.65144 -112.25086 33110 ft 549 kts 50°
2026-05-04 00:33 37.72256 -112.13814 33089 ft 547 kts 49°
2026-05-04 00:34 37.76991 -112.06317 33086 ft 545 kts 50°
2026-05-04 00:34 37.81685 -111.98788 33047 ft 545 kts 50°
2026-05-04 00:35 37.86359 -111.91245 32984 ft 545 kts 50°
2026-05-04 00:35 37.91032 -111.83690 32930 ft 545 kts 50°
2026-05-04 00:36 37.95706 -111.76121 32914 ft 545 kts 50°
2026-05-04 00:36 38.00370 -111.68552 32914 ft 544 kts 51°